Location: Bluff Heights
(33.7692°N, 118.1592°W)
Time: 00:12:45
(UTC+00:00)

Tiros 1 - Pass Details

Date: 02 August 2021
Orbit: 630 x 663 km, 48.4° (Epoch: 20 September)

Event Time Altitude Azimuth Distance (km) Brightness Sun altitude
Rises 07:19:11 0° 312° (NW) 2,955 11.2 -37.7°
Reaches altitude 10° 07:21:35 10° 317° (NW) 2,037 10.3 -37.8°
Enters shadow 07:22:03 13° 319° (NW) 1,869 10.0 -37.8°
Maximum altitude 07:26:09 50° 34° (NNE) 808 - -38.0°
Drops below altitude 10° 07:30:40 10° 110° (ESE) 2,011 - -38.1°
Sets 07:33:01 0° 115° (ESE) 2,913 - -38.2°
